This demonstration page uses our WeatherBlox Daily Observations layout. Learn more.

Left ArrowRight Arrow

44.8408, -93.29828

Hourly Observations for March 2, 2017

Temp ( °F °C ) Dew Point ( °F °C ) Humidity (%) Winds ( mph kmh ) Pressure ( in mb ) Visibility ( mi km ) Precip ( " mm )
12:53 am 00:53 Mostly Clear 22 -5.6 13 -10.6 68 68 NW 17 28 30.22 1023 10 16 0.00 0.00
1:53 am 01:53 Mostly Clear 21 -6.1 13 -10.6 71 71 NW 12 19 30.24 1024 10 16 0.00 0.00
2:53 am 02:53 Clear 20 -6.7 12 -11.1 71 71 NNW 13 20 30.25 1025 10 16 0.00 0.00
3:53 am 03:53 Clear 19 -7.2 12 -11.1 74 74 NNW 12 19 30.26 1025 10 16 0.00 0.00
4:53 am 04:53 Clear 19 -7.2 11 -11.7 71 71 NNW 9 15 30.28 1026 10 16 0.00 0.00
5:53 am 05:53 Mostly Cloudy 19 -7.2 11 -11.7 71 71 NW 9 15 30.31 1026 10 16 0.00 0.00
6:53 am 06:53 Mostly Cloudy 18 -7.8 10 -12.2 71 71 NW 8 13 30.33 1027 10 16 0.00 0.00
7:53 am 07:53 Mostly Cloudy 19 -7.2 11 -11.7 71 71 NW 7 11 30.36 1028 10 16 0.00 0.00
8:53 am 08:53 Mostly Cloudy 21 -6.1 11 -11.7 65 65 NW 8 13 30.38 1029 10 16 0.00 0.00
9:53 am 09:53 Partly Cloudy 24 -4.4 11 -11.7 57 57 NW 5 7 30.40 1029 10 16 0.00 0.00
10:53 am 10:53 Partly Cloudy 26 -3.3 11 -11.7 53 53 NW 10 17 30.41 1030 10 16 0.00 0.00
11:53 am 11:53 Mostly Sunny 27 -2.8 9 -12.8 46 46 WNW 9 15 30.42 1030 10 16 0.00 0.00
12:53 pm 12:53 Mostly Sunny 29 -1.7 2 -16.7 31 31 NW 15 24 30.42 1030 10 16 0.00 0.00
1:53 pm 13:53 Mostly Sunny 31 -0.6 6 -14.4 35 35 WNW 12 19 30.42 1030 10 16 0.00 0.00
2:53 pm 14:53 Partly Cloudy 29 -1.7 4 -15.6 34 34 NNW 16 26 30.43 1030 10 16 0.00 0.00
3:53 pm 15:53 Partly Cloudy 27 -2.8 4 -15.6 37 37 NW 16 26 30.44 1031 10 16 0.00 0.00
4:53 pm 16:53 Partly Cloudy 28 -2.2 3 -16.1 34 34 NW 20 31 30.44 1031 10 16 0.00 0.00
5:53 pm 17:53 Mostly Sunny 25 -3.9 3 -16.1 39 39 NW 14 22 30.46 1032 10 16 0.00 0.00
6:53 pm 18:53 Mostly Clear 24 -4.4 4 -15.6 42 42 NW 13 20 30.48 1032 10 16 0.00 0.00
7:53 pm 19:53 Clear 23 -5 4 -15.6 44 44 NW 9 15 30.49 1033 10 16 0.00 0.00
8:53 pm 20:53 Clear 22 -5.6 6 -14.4 50 50 WNW 14 22 30.50 1033 10 16 0.00 0.00
9:53 pm 21:53 Clear 21 -6.1 5 -15 50 50 NW 12 19 30.51 1033 10 16 0.00 0.00
10:53 pm 22:53 Clear 20 -6.7 5 -15 52 52 NW 14 22 30.53 1034 10 16 0.00 0.00
11:53 pm 23:53 Clear 19 -7.2 6 -14.4 57 57 NW 9 15 30.53 1034 10 16 0.00 0.00

Powered by AerisWeather